"Pseudo-MPEC" for N00i07s
Created 2021 Feb 24 8:07:12 UT using Find_Orb
Click here for an explanation of pseudo-MPECs
Astrometry: N00i07s S2021 02 19SBj*1Zcc')h+?6=+6a2Nk_n#nkI@Dk^5uIo_JfQoj6i'TNq;`E,E
C51 N00i07s s2021 02 199cm*23($Kqyug8E-oPV_gE@AM7\36B2)+%gr8pvdgO9.B^;74rPU
C51 N00i07s S2021 02 19qqvEb2XSTk\:JJ2=@b[aktp321JF]UULRThe2A?W$Y\(EyH-ZcyT
C51 N00i07s s2021 02 19Yffkkf(FB]rO7::$635nGKvlJxT
Astrometry^a-lAs2fdSn0O,\
C51 N00i07s S2021 02 19$CQr!g,k[-1yA/-%p:Lkh^W,7Lqg2SEU^1KJV`Wrq09ZrsQfEBT)
C51 N00i07s s2021 02 19TauZXlea!$%f))BD`;;K.PC['/#d1Y9kkU70p94v%%Hb@=Wk%-ha
C51 N00i07s S2021 02 19hQAFo_1Nx#?-nP$-g\Yixy`0Deq2:dH:Y-Kb`('Gw1K^P%Kf_n?8
C51 N00i07s s2021 02 19TO]to:3TGd/$.jK_wD,VILok.LtkFu:!iN#xug$^kfN=*nJj$s=t
C51 N00i07s S2021 02 20kb(7Mdfg?UoCSDd1(0R1'Xou(`SUWMG?/?V\)v$#RMF_r0qTt#e!
C51 N00i07s s2021 02 20[[v=u*rRWsKg8\#vX'y0UyJ'cu[^x!_Y66P1@=wvhhJBd)#=m2=9
C51 N00i07s S2021 02 208OdjP#I@9S+YVH1R6)t;%_x)Vkosc/SU8qFhtIbh#mG3o2e_p_ux
C51 N00i07s s2021 02 20xXUDN(a75pO,pqZ@YHwp0u\OZRh[(A3`P14XLKmCS9q33*\00,t+
C51 N00i07s S2021 02 20hIful!#34ccRuL#hIXA=)TP4j;Dv5*?9p:+Kqr9Z[9fV@Dxis,+'
C51 N00i07s s2021 02 207srRrnA3ZL'?wx763L*y\JCZmyST_[k2-w*!,iS2JL/I6j*i'Tga
C51 N00i07s S2021 02 20!foU%*87wBl)5Io`u%c9%S^cBeqcrPuN/YN!pLx=B'REPl@U/44b
C51 N00i07s s2021 02 20Lw_knHqARGIw=Q#;nyvDMG?\V-qsYH2Jq4ulgB;]I8pHI8HneIgH
C51 N00i07s S2021 02 20Zts--u?WFSR8tOSWxFXRN?fg,LT.`('m5V2l#
redacted;?y;:No
C51 N00i07s s2021 02 20K;]X112PR4^:LlUMmj)Y7,y6mqrDfVwA4'sy1qL#K'*sq4Rbt+xP
C51 N00i07s S2021 02 20RGK`g[d*FP
clickaEaXqe)RI$7/ffneG[dLv+-lJcwp9^;!g@y?i
C51 N00i07s s2021 02 20VC[?0G3Oc4d'``3GS]e*SXhHY^iS7/wm,Xfp%yhhdJ)$]PW@o;MN
C51 N00i07s S2021 02 20)OaA?;Y(l4Jm_)G^K5Hu'XI^RYl]/T%NI80;D?1]H2BsHDo@K'id
C51 N00i07s s2021 02 20Zb9.!Z*er:Z79yvGiu7=jWhq!R+cpyKr!h,`S%hpmgLji;bd,%.H
C51 N00i07s S2021 02 20%?e\qd-C?u)Y).4KX'8_K'ThEaGS%o3xpx4AA5qGoT0)%B0q'6S\
C51 N00i07s s2021 02 20$xwKRVAeTk=BfY=*n4QcB;FG^1seGL!%Jx*V.%ubp8*\qH@@6L]3
C51 N00i07s S2021 02 20g*4Ko-7Ylu^E%:S+6pUNl2tm^WL;:Q0B[5!?Z[43f
hereJ)AR^g,
C51 N00i07s s2021 02 20:a88AS6p88DsMma[[O!+2v7JdD?JVbHOp^EhP]f#efpL!QU6hyN8
C51 N00i07s S2021 02 20=L1[P8km:@cR?+(#q+B8VH9a$pxlI^f,p!\blOVglb,wjcIO+a_T
C51 N00i07s s2021 02 20GXpy$?Y_ef`!N-+*twFZO6Dx@)_Y79Zo03M)lji10)g_6rCdIjEx
C51 N00i07s S2021 02 20ZCPTi4)Hgm\ov(9?:II[._S,$P#U0F_?O-D2Uf%k[!ttuhCDI,]l
C51 N00i07s s2021 02 20aXBg,d'%EV2ChB/G3D-wuuDYnt3j9TvW[Vkh30/ZDT]+LZ[B0YDC
C51 N00i07s S2021 02 21Zl=G\0!YB75x(#RphPfp3qvH,?Xfc!FVrGl]KY9:1vrdl`vLPdwL
C51 N00i07s s2021 02 212*EDpcypsqqe.skgg+Sc#q/=w_i'IA-5%SYOpXEi*Tliy4V+gsb^
C51 N00i07s S2021 02 21\5BoEjI[IV:xLMwo1m$#]#km.Xgqp#w+EFGkkKL:[@9bGjW2^[jA
C51 N00i07s s2021 02 21_[hG:Ur0YIXp=#;B)UXJH@K9w^w3NrL/`M#pF4)o*;?!?ZxHjVL8
C51 N00i07s S2021 02 21vx+M6\:.fMI:Q?:?/#=)X\cV_-21bc+6yhPqvqEyeP%Ith8q^N5;
C51 N00i07s s2021 02 21gBMSB6(pp0gF'fFlpK?m:E_e*3yUwL.s$
for!BtKSr4(r[yj,r]r
C51 N00i07s S2021 02 21Bf0@!eq'MkxQltL'BjJw#,]vD^n@$JPx%op`Ba^t-YK`BoVF1S$r
C51 N00i07s s2021 02 21kTp)6-LA++6Uk3*aJ=;OW7y4]dAa62o,;qwCb(T=NA4X(8OCg,Zf
C51 N00i07s KC2021 02 23@rQ3gN)NDKFxi.w.?:fGR;Es%:BQk^e2gH:1He1Tt',TiKnVLKqs
W33 N00i07s KC2021 02 23MQgJ(2bGE)o_nr%r3TS?.CjVS=0Xh]`sK0V]L#(VMBJE!*=48KTF
W33 N00i07s KC2021 02 23nDVG;f%^JeWuO3Xk;276c8uZL3+4S%jtWZX[yjVOWh+H]qft-)f\
W33 N00i07s KC2021 02 23.44858 16 15 45.67 -09 35 24.1 ~2NBM VNEOCP291 N00i07s KC2021 02 239p#s*WRN1'+E9@E)PNa?3c*PQk3=
explanationN+0Dc^(@6V+=Q
W33 N00i07s KC2021 02 23.45377 16 15 46.43 -09 35 28.3 ~2NBM VNEOCP291 N00i07s KC2021 02 23.45895 16 15 47.20 -09 35 32.4 ~2NBM 21.0 GVNEOCP291 N00i07s HC2021 02 23.45953316 15 47.29 -09 35 32.9 ~2NBb 22.10GVNEOCPI52 N00i07s HC2021 02 23.46279816 15 47.73 -09 35 36.1 ~2NBb 22.08GVNEOCPI52 N00i07s HC2021 02 23.46580716 15 48.21 -09 35 38.4 ~2NBb 22.00GVNEOCPI52 N00i07s HC2021 02 23.46905916 15 48.66 -09 35 40.8 ~2NBb VNEOCPI52 Station data: (291) LPL/Spacewatch II (N31.961669 W111.599905) US/Arizona. Observers J. V. Scotti, R. S. McMillan. 1.8-m f/2.7 reflector + CCD. (C51) WISE. Measurers A. Mainzer, E. Wright, J. Bauer, T. Grav, J. Dailey, J. Masiero, R. Cutri, R. McMillan, R. Walker. (I52) Steward Observatory, Mt. Lemmon Station (N32.442547 W110.788920) US/Arizona. Observers T. A. Pruyne, B. M. Africano, E. J. Christensen, G. A. Farneth, D. C. Fuls, A. R. Gibbs, A. D. Grauer, H. Gröller, J. A. Johnson, R. A. Kowalski, S. M. Larson, G. J. Leonard, D. Rankin, R. L. Seaman, F. C. Shelly. 1.0-m reflector + CCD. (W33) Transit Dreams Observatory, Campobello (N35.077819 W82.165490) US/South Carolina. Orbital elements: N00i07s Perihelion 2021 May 22.178309 TT = 4:16:45 (JD 2459356.678309) Epoch 2021 Feb 23.0 TT = JDT 2459268.5 Earth MOID: 0.3397 AutoNEOCP M 326.48664190 (J2000 ecliptic) n 0.38006351 Peri. 206.92633 a 1.88755057 Node 52.69600 e 0.2922514 Incl. 16.25934 P 2.59/947.19d H 18.4 G 0.15 q 1.33591121 Q 2.43918993 From 30 observations 2021 Feb. 19-23; mean residual 0".74
Residuals in arcseconds: 210219 C51 .04- .11+ 210220 C51 .12- .04- 210223 W33 .36- .12- 210219 C51 .43+ 1.1- 210220 C51 .43- 1.3+ 210223 W33 .11- 1.0- 210219 C51 .06- .02- 210220 C51 .05- .46- 210223 291 .62+ .44+ 210219 C51 .07- .12- 210220 C51 .87- .57- 210223 W33 .38- 1.2- 210220 C51 .22- .38+ 210220 C51 .28- 2.1- 210223 291 .40+ .40+ 210220 C51 .20+ .07- 210221 C51 .19- .32- 210223 291 .35+ .45+ 210220 C51 .25- .22- 210221 C51 .53+ .82- 210223 I52 .49+ .48+ 210220 C51 .97+ 3.7+ 210221 C51 1.1- .54+ 210223 I52 .20- .11- 210220 C51 .15+ .26- 210221 C51 .60+ .26+ 210223 I52 .26+ .00 210220 C51 .66+ .50- 210223 W33 .77- .53+ 210223 I52 .26- .21+ Ephemerides (geocentric): Date (UTC) HH RA Dec delta r elong mag ---- -- -- -- ------------- ----------- ------ ------ ----- --- 2021 02 24 08 16 17 59.497 -09 47 06.05 1.1005 1.4962 91.3 21.1 2021 02 24 09 16 18 05.822 -09 47 39.39 1.1000 1.4961 91.3 21.1 2021 02 24 10 16 18 12.148 -09 48 12.74 1.0996 1.4959 91.3 21.1 2021 02 24 11 16 18 18.475 -09 48 46.10 1.0992 1.4958 91.3 21.1 2021 02 24 12 16 18 24.801 -09 49 19.47 1.0988 1.4956 91.3 21.1 2021 02 24 13 16 18 31.129 -09 49 52.84 1.0983 1.4955 91.3 21.1 2021 02 24 14 16 18 37.457 -09 50 26.22 1.0979 1.4954 91.3 21.1 2021 02 24 15 16 18 43.786 -09 50 59.60 1.0975 1.4952 91.4 21.1 2021 02 24 16 16 18 50.115 -09 51 32.99 1.0971 1.4951 91.4 21.1 2021 02 24 17 16 18 56.445 -09 52 06.39 1.0966 1.4950 91.4 21.1 2021 02 24 18 16 19 02.776 -09 52 39.80 1.0962 1.4948 91.4 21.1 2021 02 24 19 16 19 09.107 -09 53 13.21 1.0958 1.4947 91.4 21.1 2021 02 24 20 16 19 15.439 -09 53 46.63 1.0954 1.4946 91.4 21.1 2021 02 24 21 16 19 21.771 -09 54 20.06 1.0950 1.4944 91.4 21.1 2021 02 24 22 16 19 28.104 -09 54 53.49 1.0945 1.4943 91.5 21.1 2021 02 24 23 16 19 34.438 -09 55 26.93 1.0941 1.4942 91.5 21.1 2021 02 25 00 16 19 40.772 -09 56 00.38 1.0937 1.4940 91.5 21.1 2021 02 25 01 16 19 47.107 -09 56 33.83 1.0933 1.4939 91.5 21.1 2021 02 25 02 16 19 53.443 -09 57 07.29 1.0928 1.4938 91.5 21.1 2021 02 25 03 16 19 59.779 -09 57 40.76 1.0924 1.4936 91.5 21.1 2021 02 25 04 16 20 06.116 -09 58 14.23 1.0920 1.4935 91.5 21.1 2021 02 25 05 16 20 12.453 -09 58 47.72 1.0916 1.4933 91.6 21.1 2021 02 25 06 16 20 18.791 -09 59 21.20 1.0911 1.4932 91.6 21.1 2021 02 25 07 16 20 25.130 -09 59 54.70 1.0907 1.4931 91.6 21.1 2021 02 25 08 16 20 31.469 -10 00 28.20 1.0903 1.4929 91.6 21.1 2021 02 25 09 16 20 37.809 -10 01 01.71 1.0899 1.4928 91.6 21.1 2021 02 25 10 16 20 44.149 -10 01 35.23 1.0895 1.4927 91.6 21.1 2021 02 25 11 16 20 50.490 -10 02 08.75 1.0890 1.4925 91.6 21.1 2021 02 25 12 16 20 56.832 -10 02 42.28 1.0886 1.4924 91.7 21.1 2021 02 25 13 16 21 03.174 -10 03 15.82 1.0882 1.4923 91.7 21.1 2021 02 25 14 16 21 09.517 -10 03 49.37 1.0878 1.4921 91.7 21.1 2021 02 25 15 16 21 15.861 -10 04 22.92 1.0873 1.4920 91.7 21.1 2021 02 25 16 16 21 22.205 -10 04 56.48 1.0869 1.4919 91.7 21.1 2021 02 25 17 16 21 28.550 -10 05 30.05 1.0865 1.4917 91.7 21.1 2021 02 25 18 16 21 34.895 -10 06 03.62 1.0861 1.4916 91.7 21.1 2021 02 25 19 16 21 41.241 -10 06 37.20 1.0857 1.4915 91.8 21.1 2021 02 25 20 16 21 47.588 -10 07 10.79 1.0852 1.4913 91.8 21.1 2021 02 25 21 16 21 53.935 -10 07 44.38 1.0848 1.4912 91.8 21.1 2021 02 25 22 16 22 00.283 -10 08 17.99 1.0844 1.4911 91.8 21.1 2021 02 25 23 16 22 06.631 -10 08 51.60 1.0840 1.4909 91.8 21.1 2021 02 26 00 16 22 12.981 -10 09 25.21 1.0836 1.4908 91.8 21.1 2021 02 26 01 16 22 19.330 -10 09 58.84 1.0831 1.4907 91.8 21.1 2021 02 26 02 16 22 25.681 -10 10 32.47 1.0827 1.4905 91.8 21.1 2021 02 26 03 16 22 32.032 -10 11 06.11 1.0823 1.4904 91.9 21.1 2021 02 26 04 16 22 38.384 -10 11 39.75 1.0819 1.4903 91.9 21.1 2021 02 26 05 16 22 44.736 -10 12 13.41 1.0815 1.4901 91.9 21.1 2021 02 26 06 16 22 51.089 -10 12 47.07 1.0810 1.4900 91.9 21.1 2021 02 26 07 16 22 57.442 -10 13 20.74 1.0806 1.4899 91.9 21.1